Regional Weather Roundup
Issued by NWS Jackson, KY

Home | Current Version | Previous Version | Graphics & Text | Print | Product List | Glossary On
Versions: 1 2 3 4 5 6 7 8 9 10 11 12 13 14 15 16 17 18 19 20 21 22 23 24 25 26 27 28 29 30 31 32 33 34 35 36 37 38 39 40 41 42 43 44 45 46 47 48 49 50
000
ASUS43 KJKL 290310
RWRJKL

EAST KENTUCKY HOURLY WEATHER ROUNDUP
NATIONAL WEATHER SERVICE JACKSON KY
1100 PM EDT FRI AUG 28 2015

NOTE: "FAIR" INDICATES FEW OR NO CLOUDS BELOW 12,000 FEET WITH
NO SIGNIFICANT WEATHER AND/OR OBSTRUCTIONS TO VISIBILITY.

* THESE REPORTS ARE NOT UNDER NWS QUALITY CONTROL AND MAY NOT
  REPORT WEATHER SUCH AS PRECIPITATION AND FOG.

KYZ079-080-083-085-087-088-110-112-115-119-120-290400
...EASTERN KENTUCKY...

CITY           SKY/WX    TMP DP  RH WIND       PRES   REMARKS
JACKSON        CLEAR     72  62  71 VRB3      30.18R
LONDON         CLEAR     69  63  81 CALM      30.16S
SOMERSET*      CLEAR     66  66 100 CALM      30.16R
MONTICELLO*    CLEAR     62  62 100 CALM      30.17R FOG
WILLIAMSBURG*  CLEAR     66  66 100 CALM      30.16
MIDDLESBORO*   PTCLDY    66  63  90 CALM      30.18S
HAZARD APT*    CLEAR     68  66  94 CALM      30.18R
BLACK MTN*       N/A    N/A N/A N/A E1          N/A
PIKEVILLE APT* CLEAR     72  63  73 SE3       30.19S
BIG SANDY*     CLEAR     66  64  93 CALM      30.18S
MOREHEAD APT*  PTCLDY    68  61  77 VRB3      30.18R
$$

KYZ035-036-041-042-044-050-067-078-099-290400
...CENTRAL KENTUCKY...

CITY           SKY/WX    TMP DP  RH WIND       PRES   REMARKS
MT STERLING*   CLEAR     72  63  73 SE3       30.16F
FLEMING/MASON* CLEAR     66  61  82 SE3       30.17R
DANVILLE*      CLEAR     64  63  94 CALM      30.15F
RICHMOND*      CLEAR     68  63  83 SE5       30.14S
LEXINGTON      CLEAR     73  60  63 E7        30.14S
FRANKFORT      CLEAR     69  61  75 E3        30.12S
$$

KYZ091>093-OHZ055-061-077-WVZ005-015-034-035-042-290400
...SOUTHERN OHIO/WEST VIRGINIA...

CITY           SKY/WX    TMP DP  RH WIND       PRES   REMARKS
COVINGTON      PTCLDY    67  59  75 SE5       30.14R
COLUMBUS       PTCLDY    65  58  78 CALM      30.15R
DAYTON         MOCLDY    65  57  75 SE6       30.15S
WILMINGTON     PTCLDY    62  56  80 E5        30.15R
HUNTINGTON     PTCLDY    66  62  87 CALM      30.15S
CHARLESTON     CLEAR     66  63  90 CALM      30.17S
PINEVILLE*     CLEAR     62  62 100 MISG      30.26S
BECKLEY        CLEAR     63  58  83 SE3       30.25R
BLUEFIELD      MOCLDY    71  57  61 S3        30.28R
$$

VAZ002-007-008-TNZ017-027-036-066-071-290400
...SOUTHWEST VIRGINIA/EAST TENNESSEE...

CITY           SKY/WX    TMP DP  RH WIND       PRES   REMARKS
WISE*          CLEAR     70  59  68 CALM      30.27S
JONESVILLE*    CLEAR     64  64 100 CALM      30.21S
ABINGDON*      PTCLDY    68  60  74 CALM      30.24R
BRISTOL        PTCLDY    66  62  87 CALM      30.20R
KNOXVILLE      MOCLDY    76  62  62 SE5       30.15R
OAK RIDGE      PTCLDY    71  65  81 CALM      30.17R
CROSSVILLE     CLOUDY    70  63  78 CALM      30.20R
NASHVILLE      PTCLDY    74  64  71 S5        30.10R
$$

...KEY TO REMARKS...
VSB - VISIBILITY IN MILES
WCI - WIND CHILL INDEX
HX  - HEAT INDEX

$$


USA.gov is the U.S. government's official web portal to all federal, state and local government web resources and services.